Time,TemperatureF,DewpointF,PressureIn,WindDirection,WindDirectionDegrees,WindSpeedMPH,WindSpeedGustMPH,Humidity,HourlyPrecipIn,Conditions,Clouds,dailyrainin,SolarRadiationWatts/m^2,SoftwareType,DateUTC
2013-09-18 00:04:00,57.0,52.9,30.00,West,273,5.0,9.0,86,0.00,,FEW,0.00,0.00,VWS V14.01,2013-09-18 05:04:00,
2013-09-18 00:09:00,56.9,52.8,30.00,SW,219,4.0,8.0,86,0.00,,FEW,0.00,0.00,VWS V14.01,2013-09-18 05:09:00,
2013-09-18 00:14:00,56.9,52.8,30.00,SW,227,3.0,7.0,86,0.00,,FEW,0.00,0.00,VWS V14.01,2013-09-18 05:14:00,
2013-09-18 00:19:00,56.9,53.1,30.00,SW,214,5.0,9.0,87,0.00,,FEW,0.00,0.00,VWS V14.01,2013-09-18 05:19:00,
2013-09-18 00:24:00,56.9,53.1,30.00,SW,225,5.0,11.0,87,0.00,,FEW,0.00,0.00,VWS V14.01,2013-09-18 05:24:00,
2013-09-18 00:29:00,56.9,53.1,30.00,South,173,2.0,7.0,87,0.00,,FEW,0.00,0.00,VWS V14.01,2013-09-18 05:29:00,
2013-09-18 00:34:00,56.8,53.0,30.00,SSW,209,0.0,5.0,87,0.00,,FEW,0.00,0.00,VWS V14.01,2013-09-18 05:34:00,
2013-09-18 00:35:00,56.8,53.0,30.00,WSW,251,1.0,5.0,87,0.00,,FEW,0.00,0.00,VWS V14.01,2013-09-18 05:35:00,
2013-09-18 00:40:00,56.8,53.0,29.99,SSW,210,7.0,9.0,87,0.00,,FEW,0.00,0.00,VWS V14.01,2013-09-18 05:40:00,
2013-09-18 00:45:00,56.8,53.3,29.99,SSW,207,2.0,8.0,88,0.00,,FEW,0.00,0.00,VWS V14.01,2013-09-18 05:45:00,
2013-09-18 00:50:00,56.7,53.2,29.99,South,176,6.0,7.0,88,0.00,,FEW,0.00,0.00,VWS V14.01,2013-09-18 05:50:00,
2013-09-18 00:56:00,56.7,53.2,29.99,WSW,253,6.0,6.0,88,0.00,,FEW,0.00,0.00,VWS V14.01,2013-09-18 05:56:00,
2013-09-18 01:01:00,56.7,53.2,29.99,South,187,2.0,8.0,88,0.00,,FEW,0.00,0.00,VWS V14.01,2013-09-18 06:01:00,
2013-09-18 01:06:00,56.6,53.1,29.99,SSE,148,4.0,4.0,88,0.00,,FEW,0.00,0.00,VWS V14.01,2013-09-18 06:06:00,
2013-09-18 01:11:00,56.6,53.4,29.99,SSW,212,3.0,7.0,89,0.00,,FEW,0.00,0.00,VWS V14.01,2013-09-18 06:11:00,
2013-09-18 01:16:00,56.6,53.4,29.98,SW,219,3.0,4.0,89,0.00,,FEW,0.00,0.00,VWS V14.01,2013-09-18 06:16:00,
2013-09-18 01:21:00,56.6,53.4,29.98,SW,225,0.0,9.0,89,0.00,,FEW,0.00,0.00,VWS V14.01,2013-09-18 06:21:00,
2013-09-18 01:26:00,56.5,53.3,29.98,WSW,238,0.0,9.0,89,0.00,,FEW,0.00,0.00,VWS V14.01,2013-09-18 06:26:00,
2013-09-18 01:31:00,56.5,53.3,29.98,SSW,205,3.0,4.0,89,0.00,,FEW,0.00,0.00,VWS V14.01,2013-09-18 06:31:00,
2013-09-18 01:36:00,56.5,53.6,29.98,SW,217,1.0,7.0,90,0.00,,FEW,0.00,0.00,VWS V14.01,2013-09-18 06:36:00,
2013-09-18 01:41:00,56.5,53.6,29.98,SSW,206,2.0,6.0,90,0.00,,FEW,0.00,0.00,VWS V14.01,2013-09-18 06:41:00,
2013-09-18 01:46:00,56.5,53.6,29.98,SW,220,2.0,6.0,90,0.00,,FEW,0.00,0.00,VWS V14.01,2013-09-18 06:46:00,
2013-09-18 01:51:00,56.5,53.6,29.98,SW,223,4.0,8.0,90,0.00,,FEW,0.00,0.00,VWS V14.01,2013-09-18 06:51:00,
2013-09-18 01:56:00,56.4,53.5,29.97,SSW,192,2.0,5.0,90,0.00,,FEW,0.00,0.00,VWS V14.01,2013-09-18 06:56:00,
2013-09-18 02:01:00,56.4,53.5,29.97,SW,215,3.0,9.0,90,0.00,,FEW,0.00,0.00,VWS V14.01,2013-09-18 07:01:00,
2013-09-18 02:06:00,56.4,53.8,29.97,SSW,201,2.0,3.0,91,0.00,,FEW,0.00,0.00,VWS V14.01,2013-09-18 07:06:00,
2013-09-18 02:11:00,56.4,53.8,29.97,SW,217,2.0,2.0,91,0.00,,FEW,0.00,0.00,VWS V14.01,2013-09-18 07:11:00,
2013-09-18 02:16:00,56.4,53.8,29.96,South,188,2.0,3.0,91,0.00,,FEW,0.00,0.00,VWS V14.01,2013-09-18 07:16:00,
2013-09-18 02:21:00,56.4,53.8,29.96,SSE,155,3.0,8.0,91,0.00,,FEW,0.00,0.00,VWS V14.01,2013-09-18 07:21:00,
2013-09-18 02:26:00,56.4,53.8,29.95,SSW,192,2.0,4.0,91,0.00,,FEW,0.00,0.00,VWS V14.01,2013-09-18 07:26:00,
2013-09-18 02:31:00,56.4,53.8,29.95,SSW,203,1.0,2.0,91,0.00,,FEW,0.00,0.00,VWS V14.01,2013-09-18 07:31:00,
2013-09-18 02:36:00,56.4,54.1,29.95,SSW,193,3.0,7.0,92,0.01,,FEW,0.01,0.00,VWS V14.01,2013-09-18 07:36:00,
2013-09-18 02:42:00,56.4,54.1,29.95,SW,223,4.0,4.0,92,0.01,,FEW,0.01,0.00,VWS V14.01,2013-09-18 07:42:00,
2013-09-18 02:47:00,56.3,54.0,29.95,SSW,192,3.0,5.0,92,0.02,,FEW,0.02,0.00,VWS V14.01,2013-09-18 07:47:00,
2013-09-18 02:52:00,56.3,54.0,29.94,SSE,158,7.0,7.0,92,0.02,,FEW,0.02,0.00,VWS V14.01,2013-09-18 07:52:00,
2013-09-18 02:57:00,56.3,54.0,29.95,SSE,167,4.0,6.0,92,0.02,,FEW,0.02,0.00,VWS V14.01,2013-09-18 07:57:00,
2013-09-18 03:02:00,56.3,54.0,29.94,SSW,192,0.0,7.0,92,0.02,,FEW,0.02,0.00,VWS V14.01,2013-09-18 08:02:00,
2013-09-18 03:07:00,56.4,54.1,29.94,SSW,211,5.0,6.0,92,0.03,,FEW,0.03,0.00,VWS V14.01,2013-09-18 08:07:00,
2013-09-18 03:12:00,56.4,54.1,29.94,SSW,192,5.0,7.0,92,0.03,,FEW,0.03,0.00,VWS V14.01,2013-09-18 08:12:00,
2013-09-18 03:17:00,56.4,54.1,29.93,SSW,196,3.0,6.0,92,0.03,,FEW,0.03,0.00,VWS V14.01,2013-09-18 08:17:00,
2013-09-18 03:22:00,56.4,54.1,29.93,SSE,167,3.0,7.0,92,0.03,,FEW,0.03,0.00,VWS V14.01,2013-09-18 08:22:00,
2013-09-18 03:27:00,56.4,54.4,29.93,SSW,209,2.0,10.0,93,0.03,,FEW,0.03,0.00,VWS V14.01,2013-09-18 08:27:00,
2013-09-18 03:32:00,56.5,54.5,29.93,SW,228,3.0,5.0,93,0.03,,FEW,0.03,0.00,VWS V14.01,2013-09-18 08:32:00,
2013-09-18 03:37:00,56.5,54.5,29.93,SW,214,4.0,4.0,93,0.02,,FEW,0.03,0.00,VWS V14.01,2013-09-18 08:37:00,
2013-09-18 03:42:00,56.6,54.6,29.93,South,172,1.0,4.0,93,0.02,,FEW,0.03,0.00,VWS V14.01,2013-09-18 08:42:00,
2013-09-18 03:47:00,56.6,54.6,29.93,WSW,246,2.0,7.0,93,0.01,,FEW,0.03,0.00,VWS V14.01,2013-09-18 08:47:00,
2013-09-18 03:52:00,56.6,54.6,29.93,SSW,204,3.0,4.0,93,0.01,,FEW,0.03,0.00,VWS V14.01,2013-09-18 08:52:00,
2013-09-18 03:57:00,56.7,54.7,29.93,SW,227,5.0,7.0,93,0.02,,FEW,0.04,0.00,VWS V14.01,2013-09-18 08:57:00,
2013-09-18 04:02:00,56.7,54.7,29.93,SSE,163,8.0,8.0,93,0.02,,FEW,0.04,0.00,VWS V14.01,2013-09-18 09:02:00,
2013-09-18 04:07:00,56.7,54.7,29.92,South,190,3.0,3.0,93,0.01,,FEW,0.04,0.00,VWS V14.01,2013-09-18 09:07:00,
2013-09-18 04:12:00,56.8,54.8,29.92,WSW,242,3.0,7.0,93,0.01,,FEW,0.04,0.00,VWS V14.01,2013-09-18 09:12:00,
2013-09-18 04:18:00,56.8,54.8,29.92,SW,219,2.0,7.0,93,0.01,,FEW,0.04,0.00,VWS V14.01,2013-09-18 09:18:00,
2013-09-18 04:23:00,56.9,54.9,29.92,SSW,203,0.0,4.0,93,0.01,,FEW,0.04,0.00,VWS V14.01,2013-09-18 09:23:00,
2013-09-18 04:28:00,56.9,54.9,29.92,SW,236,1.0,5.0,93,0.01,,FEW,0.04,0.00,VWS V14.01,2013-09-18 09:28:00,
2013-09-18 04:33:00,57.0,55.0,29.92,SW,234,2.0,5.0,93,0.01,,FEW,0.04,0.00,VWS V14.01,2013-09-18 09:33:00,
2013-09-18 04:38:00,57.0,55.0,29.92,SSW,211,3.0,6.0,93,0.01,,FEW,0.04,0.00,VWS V14.01,2013-09-18 09:38:00,
2013-09-18 04:43:00,57.0,55.0,29.92,SSW,197,3.0,5.0,93,0.01,,FEW,0.04,0.00,VWS V14.01,2013-09-18 09:43:00,
2013-09-18 04:48:00,57.1,55.1,29.92,SW,229,3.0,5.0,93,0.01,,FEW,0.04,0.00,VWS V14.01,2013-09-18 09:48:00,
2013-09-18 04:53:00,57.1,55.1,29.92,SSW,207,2.0,5.0,93,0.01,,FEW,0.04,0.00,VWS V14.01,2013-09-18 09:53:00,
2013-09-18 04:58:00,57.2,55.2,29.92,SW,223,6.0,6.0,93,0.00,,FEW,0.04,0.00,VWS V14.01,2013-09-18 09:58:00,
2013-09-18 05:03:00,57.2,55.2,29.91,SW,216,4.0,5.0,93,0.00,,FEW,0.04,0.00,VWS V14.01,2013-09-18 10:03:00,
2013-09-18 05:08:00,57.2,55.2,29.91,SSW,199,3.0,7.0,93,0.01,,FEW,0.05,0.00,VWS V14.01,2013-09-18 10:08:00,
2013-09-18 05:13:00,57.2,55.2,29.91,SW,222,4.0,8.0,93,0.01,,FEW,0.05,0.00,VWS V14.01,2013-09-18 10:13:00,
2013-09-18 05:18:00,57.3,55.6,29.91,ESE,110,4.0,6.0,94,0.01,,FEW,0.05,0.00,VWS V14.01,2013-09-18 10:18:00,
2013-09-18 05:23:00,57.3,55.6,29.91,SW,223,4.0,4.0,94,0.01,,FEW,0.05,0.00,VWS V14.01,2013-09-18 10:23:00,
2013-09-18 05:28:00,57.3,55.6,29.91,SSW,198,1.0,4.0,94,0.01,,FEW,0.05,0.00,VWS V14.01,2013-09-18 10:28:00,
2013-09-18 05:33:00,57.3,55.6,29.91,SSW,210,0.0,4.0,94,0.01,,FEW,0.05,0.00,VWS V14.01,2013-09-18 10:33:00,
2013-09-18 05:38:00,57.3,55.6,29.91,SSE,154,0.0,2.0,94,0.01,,FEW,0.05,0.00,VWS V14.01,2013-09-18 10:38:00,
2013-09-18 05:43:00,57.3,55.6,29.91,SW,231,4.0,7.0,94,0.01,,FEW,0.05,0.00,VWS V14.01,2013-09-18 10:43:00,
2013-09-18 05:49:00,57.4,55.7,29.90,South,191,0.0,0.0,94,0.01,,FEW,0.05,0.00,VWS V14.01,2013-09-18 10:49:00,
2013-09-18 05:54:00,57.4,55.7,29.91,South,187,2.0,6.0,94,0.01,,FEW,0.05,0.00,VWS V14.01,2013-09-18 10:54:00,
2013-09-18 05:59:00,57.4,55.7,29.91,South,177,4.0,4.0,94,0.01,,FEW,0.05,0.00,VWS V14.01,2013-09-18 10:59:00,
2013-09-18 06:04:00,57.5,55.8,29.90,South,190,3.0,6.0,94,0.01,,FEW,0.05,0.00,VWS V14.01,2013-09-18 11:04:00,
2013-09-18 06:09:00,57.5,55.8,29.90,SSW,202,1.0,9.0,94,0.00,,FEW,0.05,0.00,VWS V14.01,2013-09-18 11:09:00,
2013-09-18 06:14:00,57.5,55.8,29.90,SW,215,0.0,5.0,94,0.00,,FEW,0.05,0.00,VWS V14.01,2013-09-18 11:14:00,
2013-09-18 06:19:00,57.5,55.8,29.90,SW,223,0.0,6.0,94,0.00,,FEW,0.05,0.00,VWS V14.01,2013-09-18 11:19:00,
2013-09-18 06:24:00,57.5,55.8,29.90,SW,223,0.0,1.0,94,0.00,,FEW,0.05,0.00,VWS V14.01,2013-09-18 11:24:00,
2013-09-18 06:29:00,57.5,55.8,29.90,SE,141,2.0,5.0,94,0.00,,FEW,0.05,0.00,VWS V14.01,2013-09-18 11:29:00,
2013-09-18 06:34:00,57.5,55.8,29.90,SSW,208,2.0,6.0,94,0.00,,FEW,0.05,0.00,VWS V14.01,2013-09-18 11:34:00,
2013-09-18 06:39:00,57.6,55.9,29.90,South,169,1.0,3.0,94,0.00,,FEW,0.05,0.00,VWS V14.01,2013-09-18 11:39:00,
2013-09-18 06:44:00,57.6,55.9,29.90,SW,226,0.0,4.0,94,0.00,,FEW,0.05,0.00,VWS V14.01,2013-09-18 11:44:00,
2013-09-18 06:49:00,57.6,55.9,29.89,South,181,1.0,5.0,94,0.00,,FEW,0.05,0.00,VWS V14.01,2013-09-18 11:49:00,
2013-09-18 06:54:00,57.7,56.0,29.90,SSE,157,0.0,4.0,94,0.00,,FEW,0.05,0.00,VWS V14.01,2013-09-18 11:54:00,
2013-09-18 06:59:00,57.7,56.0,29.89,South,178,2.0,3.0,94,0.00,,FEW,0.05,0.00,VWS V14.01,2013-09-18 11:59:00,
2013-09-18 07:04:00,57.7,56.0,29.89,South,182,0.0,4.0,94,0.00,,FEW,0.05,0.00,VWS V14.01,2013-09-18 12:04:00,
2013-09-18 07:09:00,57.7,56.0,29.89,SSE,163,1.0,6.0,94,0.00,,FEW,0.05,0.00,VWS V14.01,2013-09-18 12:09:00,
2013-09-18 07:14:00,57.8,56.1,29.89,South,189,1.0,5.0,94,0.00,,FEW,0.05,0.00,VWS V14.01,2013-09-18 12:14:00,
2013-09-18 07:19:00,57.8,56.1,29.89,SSW,208,0.0,0.0,94,0.00,,FEW,0.05,5.00,VWS V14.01,2013-09-18 12:19:00,
2013-09-18 07:24:00,57.9,56.2,29.89,SSW,198,4.0,6.0,94,0.00,,FEW,0.05,5.00,VWS V14.01,2013-09-18 12:24:00,
2013-09-18 07:29:00,57.9,56.2,29.89,SSE,159,4.0,5.0,94,0.00,,FEW,0.05,5.00,VWS V14.01,2013-09-18 12:29:00,
2013-09-18 07:34:00,58.0,56.3,29.89,SSE,166,0.0,3.0,94,0.00,,FEW,0.05,7.00,VWS V14.01,2013-09-18 12:34:00,
2013-09-18 07:39:00,58.0,56.3,29.89,SSE,153,2.0,6.0,94,0.00,,OVC,0.05,7.00,VWS V14.01,2013-09-18 12:39:00,
2013-09-18 07:44:00,58.0,56.3,29.89,SSW,203,4.0,6.0,94,0.00,,OVC,0.05,9.00,VWS V14.01,2013-09-18 12:44:00,
2013-09-18 07:49:00,58.1,56.4,29.90,SSW,196,4.0,6.0,94,0.00,,OVC,0.05,9.00,VWS V14.01,2013-09-18 12:49:00,
2013-09-18 07:55:00,58.1,56.4,29.89,SW,222,2.0,5.0,94,0.00,,OVC,0.05,9.00,VWS V14.01,2013-09-18 12:55:00,
2013-09-18 08:00:00,58.2,56.5,29.90,SW,216,1.0,2.0,94,0.00,,OVC,0.05,11.00,VWS V14.01,2013-09-18 13:00:00,
2013-09-18 08:05:00,58.2,56.5,29.89,SSW,206,0.0,3.0,94,0.00,,OVC,0.05,9.00,VWS V14.01,2013-09-18 13:05:00,
2013-09-18 08:10:00,58.2,56.5,29.89,SSE,154,0.0,5.0,94,0.00,,OVC,0.05,16.00,VWS V14.01,2013-09-18 13:10:00,
2013-09-18 08:15:00,58.2,56.5,29.88,South,182,2.0,8.0,94,0.00,,OVC,0.05,30.00,VWS V14.01,2013-09-18 13:15:00,
2013-09-18 08:20:00,58.2,56.5,29.89,SSW,193,0.0,9.0,94,0.00,,OVC,0.05,19.00,VWS V14.01,2013-09-18 13:20:00,
2013-09-18 08:25:00,58.3,56.6,29.88,SSW,197,2.0,5.0,94,0.00,,OVC,0.05,28.00,VWS V14.01,2013-09-18 13:25:00,
2013-09-18 08:30:00,58.4,56.7,29.88,SSW,206,0.0,6.0,94,0.00,,OVC,0.05,23.00,VWS V14.01,2013-09-18 13:30:00,
2013-09-18 08:36:00,58.5,56.8,29.88,South,182,4.0,4.0,94,0.00,,OVC,0.05,23.00,VWS V14.01,2013-09-18 13:36:00,
2013-09-18 08:41:00,58.5,56.8,29.88,South,180,2.0,7.0,94,0.00,,OVC,0.05,21.00,VWS V14.01,2013-09-18 13:41:00,
2013-09-18 08:46:00,58.5,56.8,29.88,SW,227,4.0,5.0,94,0.00,,OVC,0.05,25.00,VWS V14.01,2013-09-18 13:46:00,
2013-09-18 08:51:00,58.6,56.9,29.88,SE,132,1.0,6.0,94,0.00,,OVC,0.05,26.00,VWS V14.01,2013-09-18 13:51:00,
2013-09-18 08:56:00,58.6,56.9,29.88,South,180,1.0,4.0,94,0.00,,OVC,0.05,30.00,VWS V14.01,2013-09-18 13:56:00,
2013-09-18 09:02:00,58.7,57.0,29.88,SSE,155,5.0,5.0,94,0.00,,OVC,0.05,32.00,VWS V14.01,2013-09-18 14:02:00,
2013-09-18 09:07:00,58.8,57.1,29.89,South,176,4.0,4.0,94,0.00,,OVC,0.05,30.00,VWS V14.01,2013-09-18 14:07:00,
2013-09-18 09:12:00,58.9,57.2,29.89,SSW,205,4.0,7.0,94,0.00,,OVC,0.05,32.00,VWS V14.01,2013-09-18 14:12:00,
2013-09-18 09:17:00,59.0,57.3,29.89,SW,218,3.0,7.0,94,0.00,,OVC,0.05,26.00,VWS V14.01,2013-09-18 14:17:00,
2013-09-18 09:23:00,59.0,57.3,29.89,SSE,156,2.0,6.0,94,0.00,,OVC,0.05,25.00,VWS V14.01,2013-09-18 14:23:00,
2013-09-18 09:28:00,59.0,57.3,29.89,South,178,0.0,6.0,94,0.00,,OVC,0.05,28.00,VWS V14.01,2013-09-18 14:28:00,
2013-09-18 09:33:00,59.0,57.3,29.89,SSW,192,0.0,4.0,94,0.00,,OVC,0.05,26.00,VWS V14.01,2013-09-18 14:33:00,
2013-09-18 09:38:00,59.0,57.3,29.90,South,169,3.0,5.0,94,0.00,,OVC,0.05,25.00,VWS V14.01,2013-09-18 14:38:00,
2013-09-18 09:44:00,59.0,57.3,29.90,SW,228,3.0,4.0,94,0.00,,OVC,0.05,25.00,VWS V14.01,2013-09-18 14:44:00,
2013-09-18 09:49:00,59.0,57.3,29.90,SW,232,5.0,8.0,94,0.00,,OVC,0.05,33.00,VWS V14.01,2013-09-18 14:49:00,
2013-09-18 09:54:00,59.0,57.3,29.90,SW,236,5.0,6.0,94,0.00,,OVC,0.05,40.00,VWS V14.01,2013-09-18 14:54:00,
2013-09-18 09:59:00,59.1,57.4,29.90,SW,216,3.0,6.0,94,0.00,,OVC,0.05,33.00,VWS V14.01,2013-09-18 14:59:00,
2013-09-18 10:04:00,59.2,57.5,29.89,ESE,116,1.0,11.0,94,0.00,,OVC,0.05,51.00,VWS V14.01,2013-09-18 15:04:00,
2013-09-18 10:09:00,59.3,57.6,29.89,SW,231,3.0,8.0,94,0.00,,OVC,0.05,53.00,VWS V14.01,2013-09-18 15:09:00,
2013-09-18 10:15:00,59.4,57.7,29.89,SSW,193,2.0,6.0,94,0.00,,OVC,0.05,84.00,VWS V14.01,2013-09-18 15:15:00,
2013-09-18 10:20:00,59.5,58.1,29.89,SSW,210,3.0,6.0,95,0.00,,OVC,0.05,98.00,VWS V14.01,2013-09-18 15:20:00,
2013-09-18 10:25:00,59.7,58.3,29.88,SW,216,0.0,5.0,95,0.00,,OVC,0.05,95.00,VWS V14.01,2013-09-18 15:25:00,
2013-09-18 10:31:00,59.8,58.1,29.88,SSW,195,2.0,6.0,94,0.00,,OVC,0.05,134.00,VWS V14.01,2013-09-18 15:31:00,
2013-09-18 10:36:00,60.0,58.6,29.88,SW,227,5.0,5.0,95,0.00,,OVC,0.05,116.00,VWS V14.01,2013-09-18 15:36:00,
2013-09-18 10:41:00,60.1,58.7,29.88,SW,221,0.0,6.0,95,0.00,,OVC,0.05,79.00,VWS V14.01,2013-09-18 15:41:00,
2013-09-18 10:46:00,60.2,58.8,29.88,SW,222,0.0,4.0,95,0.00,,OVC,0.05,114.00,VWS V14.01,2013-09-18 15:46:00,
2013-09-18 10:52:00,60.3,58.9,29.88,SW,220,3.0,4.0,95,0.00,,OVC,0.05,144.00,VWS V14.01,2013-09-18 15:52:00,
2013-09-18 10:57:00,60.5,59.1,29.87,SW,219,0.0,3.0,95,0.00,,OVC,0.05,200.00,VWS V14.01,2013-09-18 15:57:00,
2013-09-18 11:01:00,60.6,59.2,29.87,SW,229,5.0,5.0,95,0.00,,OVC,0.05,185.00,VWS V14.01,2013-09-18 16:01:00,
2013-09-18 11:06:00,60.7,59.3,29.86,SW,231,4.0,7.0,95,0.00,,OVC,0.05,148.00,VWS V14.01,2013-09-18 16:06:00,
2013-09-18 11:11:00,60.9,59.5,29.86,SSW,195,0.0,5.0,95,0.00,,OVC,0.05,234.00,VWS V14.01,2013-09-18 16:11:00,
2013-09-18 11:16:00,61.1,59.7,29.86,West,259,0.0,6.0,95,0.00,,OVC,0.05,179.00,VWS V14.01,2013-09-18 16:16:00,
2013-09-18 11:21:00,61.2,59.8,29.85,SW,225,0.0,6.0,95,0.00,,OVC,0.05,174.00,VWS V14.01,2013-09-18 16:21:00,
2013-09-18 11:26:00,61.4,60.0,29.85,South,175,0.0,7.0,95,0.00,,OVC,0.05,230.00,VWS V14.01,2013-09-18 16:26:00,
2013-09-18 11:31:00,61.6,60.2,29.85,SW,217,5.0,7.0,95,0.00,,OVC,0.05,295.00,VWS V14.01,2013-09-18 16:31:00,
2013-09-18 11:36:00,61.7,60.3,29.84,SW,224,2.0,7.0,95,0.00,,OVC,0.05,227.00,VWS V14.01,2013-09-18 16:36:00,
2013-09-18 11:41:00,61.8,60.1,29.84,SW,217,1.0,8.0,94,0.00,,OVC,0.05,221.00,VWS V14.01,2013-09-18 16:41:00,
2013-09-18 11:46:00,62.0,60.3,29.83,South,172,1.0,6.0,94,0.00,,OVC,0.05,236.00,VWS V14.01,2013-09-18 16:46:00,
2013-09-18 11:52:00,62.2,60.8,29.83,South,181,0.0,0.0,95,0.00,,OVC,0.05,241.00,VWS V14.01,2013-09-18 16:52:00,
2013-09-18 11:57:00,62.5,61.0,29.83,SSW,205,4.0,5.0,95,0.00,,OVC,0.05,248.00,VWS V14.01,2013-09-18 16:57:00,
2013-09-18 12:02:00,62.7,61.0,29.83,SW,225,4.0,5.0,94,0.00,,OVC,0.05,200.00,VWS V14.01,2013-09-18 17:02:00,
2013-09-18 12:07:00,62.8,61.0,29.83,SSW,192,8.0,8.0,94,0.00,,OVC,0.05,123.00,VWS V14.01,2013-09-18 17:07:00,
2013-09-18 12:13:00,62.9,61.2,29.83,SW,235,3.0,4.0,94,0.00,,OVC,0.05,146.00,VWS V14.01,2013-09-18 17:13:00,
2013-09-18 12:18:00,63.0,61.2,29.83,SW,236,3.0,6.0,94,0.00,,OVC,0.05,105.00,VWS V14.01,2013-09-18 17:18:00,
2013-09-18 12:23:00,63.0,61.2,29.83,SSW,204,2.0,6.0,94,0.00,,OVC,0.05,88.00,VWS V14.01,2013-09-18 17:23:00,
2013-09-18 12:28:00,63.0,61.2,29.84,South,175,3.0,4.0,94,0.00,,OVC,0.05,72.00,VWS V14.01,2013-09-18 17:28:00,
2013-09-18 12:34:00,63.0,61.2,29.83,SSW,213,3.0,5.0,94,0.00,,OVC,0.05,79.00,VWS V14.01,2013-09-18 17:34:00,
2013-09-18 12:39:00,62.9,61.2,29.83,SW,221,6.0,6.0,94,0.00,,OVC,0.05,93.00,VWS V14.01,2013-09-18 17:39:00,
2013-09-18 12:44:00,62.9,60.8,29.83,South,183,9.0,9.0,93,0.00,,OVC,0.05,63.00,VWS V14.01,2013-09-18 17:44:00,
2013-09-18 12:50:00,62.9,60.8,29.84,SW,219,0.0,6.0,93,0.00,,OVC,0.05,58.00,VWS V14.01,2013-09-18 17:50:00,
2013-09-18 12:55:00,62.8,60.8,29.84,SSW,198,4.0,10.0,93,0.00,,OVC,0.05,62.00,VWS V14.01,2013-09-18 17:55:00,
2013-09-18 13:00:00,62.7,60.7,29.83,South,175,4.0,7.0,93,0.00,,OVC,0.05,49.00,VWS V14.01,2013-09-18 18:00:00,
2013-09-18 13:05:00,62.6,60.5,29.83,SE,136,4.0,10.0,93,0.00,,OVC,0.05,44.00,VWS V14.01,2013-09-18 18:05:00,
2013-09-18 13:11:00,62.6,60.5,29.83,SW,223,4.0,9.0,93,0.00,,OVC,0.05,46.00,VWS V14.01,2013-09-18 18:11:00,
2013-09-18 13:16:00,62.5,60.5,29.83,SE,144,3.0,6.0,93,0.00,,OVC,0.05,63.00,VWS V14.01,2013-09-18 18:16:00,
2013-09-18 13:21:00,62.5,60.5,29.83,SSE,156,4.0,8.0,93,0.00,,OVC,0.05,88.00,VWS V14.01,2013-09-18 18:21:00,
2013-09-18 13:26:00,62.4,60.3,29.83,South,173,3.0,7.0,93,0.00,,OVC,0.05,98.00,VWS V14.01,2013-09-18 18:26:00,
2013-09-18 13:31:00,62.5,60.5,29.83,South,178,0.0,6.0,93,0.00,,OVC,0.05,74.00,VWS V14.01,2013-09-18 18:31:00,
2013-09-18 13:36:00,62.5,60.5,29.83,SSW,192,0.0,0.0,93,0.00,,OVC,0.05,76.00,VWS V14.01,2013-09-18 18:36:00,
2013-09-18 13:42:00,62.5,60.5,29.83,SE,144,5.0,5.0,93,0.00,,OVC,0.05,46.00,VWS V14.01,2013-09-18 18:42:00,
2013-09-18 13:47:00,62.5,60.5,29.83,SSW,211,1.0,5.0,93,0.00,,OVC,0.05,53.00,VWS V14.01,2013-09-18 18:47:00,
2013-09-18 13:52:00,62.5,60.5,29.82,SSE,158,1.0,1.0,93,0.00,,OVC,0.05,58.00,VWS V14.01,2013-09-18 18:52:00,
2013-09-18 13:57:00,62.4,60.3,29.82,SW,231,2.0,4.0,93,0.00,,OVC,0.05,95.00,VWS V14.01,2013-09-18 18:57:00,
2013-09-18 14:03:00,62.4,60.3,29.82,South,182,0.0,6.0,93,0.00,,OVC,0.05,53.00,VWS V14.01,2013-09-18 19:03:00,
2013-09-18 14:08:00,62.3,60.2,29.82,SW,221,6.0,10.0,93,0.00,,OVC,0.05,70.00,VWS V14.01,2013-09-18 19:08:00,
2013-09-18 14:13:00,62.3,60.2,29.82,South,189,4.0,6.0,93,0.00,,OVC,0.05,60.00,VWS V14.01,2013-09-18 19:13:00,
2013-09-18 14:19:00,62.3,60.2,29.82,SSW,192,2.0,5.0,93,0.00,,OVC,0.05,63.00,VWS V14.01,2013-09-18 19:19:00,
2013-09-18 14:24:00,62.3,60.2,29.82,SW,223,2.0,5.0,93,0.00,,OVC,0.05,47.00,VWS V14.01,2013-09-18 19:24:00,
2013-09-18 14:29:00,62.3,60.2,29.81,SSW,196,0.0,6.0,93,0.00,,OVC,0.05,53.00,VWS V14.01,2013-09-18 19:29:00,
2013-09-18 14:34:00,62.3,60.2,29.82,South,171,0.0,5.0,93,0.00,,OVC,0.05,65.00,VWS V14.01,2013-09-18 19:34:00,
2013-09-18 14:40:00,62.3,60.2,29.81,South,187,5.0,6.0,93,0.00,,OVC,0.05,49.00,VWS V14.01,2013-09-18 19:40:00,
2013-09-18 14:45:00,62.3,60.2,29.82,South,182,0.0,3.0,93,0.00,,OVC,0.05,63.00,VWS V14.01,2013-09-18 19:45:00,
2013-09-18 14:50:00,62.3,60.2,29.82,SSW,208,2.0,6.0,93,0.00,,OVC,0.05,60.00,VWS V14.01,2013-09-18 19:50:00,
2013-09-18 14:55:00,62.3,60.2,29.81,SW,223,5.0,7.0,93,0.00,,OVC,0.05,54.00,VWS V14.01,2013-09-18 19:55:00,
2013-09-18 15:01:00,62.3,60.2,29.81,SSW,192,0.0,7.0,93,0.00,,OVC,0.05,65.00,VWS V14.01,2013-09-18 20:01:00,
2013-09-18 15:06:00,62.4,60.3,29.81,SSE,156,4.0,4.0,93,0.00,,OVC,0.05,58.00,VWS V14.01,2013-09-18 20:06:00,
2013-09-18 15:11:00,62.4,60.3,29.80,South,178,0.0,6.0,93,0.00,,OVC,0.05,65.00,VWS V14.01,2013-09-18 20:11:00,
2013-09-18 15:16:00,62.5,60.5,29.80,SSE,163,6.0,10.0,93,0.00,,OVC,0.05,67.00,VWS V14.01,2013-09-18 20:16:00,
2013-09-18 15:21:00,62.5,60.5,29.80,SW,215,3.0,6.0,93,0.00,,OVC,0.05,70.00,VWS V14.01,2013-09-18 20:21:00,
2013-09-18 15:26:00,62.5,60.5,29.80,SW,218,3.0,4.0,93,0.00,,OVC,0.05,63.00,VWS V14.01,2013-09-18 20:26:00,
2013-09-18 15:32:00,62.6,60.8,29.80,East,101,1.0,8.0,94,0.00,,OVC,0.05,58.00,VWS V14.01,2013-09-18 20:32:00,
2013-09-18 15:37:00,62.6,60.8,29.80,West,261,3.0,3.0,94,0.00,,OVC,0.05,49.00,VWS V14.01,2013-09-18 20:37:00,
2013-09-18 15:42:00,62.6,60.8,29.80,SW,230,5.0,5.0,94,0.00,,OVC,0.05,62.00,VWS V14.01,2013-09-18 20:42:00,
2013-09-18 15:47:00,62.7,61.0,29.80,South,169,3.0,5.0,94,0.00,,OVC,0.05,47.00,VWS V14.01,2013-09-18 20:47:00,
2013-09-18 15:53:00,62.7,61.0,29.79,SSW,213,1.0,6.0,94,0.00,,OVC,0.05,58.00,VWS V14.01,2013-09-18 20:53:00,
2013-09-18 15:58:00,62.8,61.0,29.79,South,173,2.0,6.0,94,0.00,,OVC,0.05,76.00,VWS V14.01,2013-09-18 20:58:00,
2013-09-18 16:03:00,62.9,61.2,29.79,SSW,213,0.0,4.0,94,0.00,,OVC,0.05,60.00,VWS V14.01,2013-09-18 21:03:00,
2013-09-18 16:08:00,62.9,61.2,29.79,South,180,3.0,8.0,94,0.00,,OVC,0.05,63.00,VWS V14.01,2013-09-18 21:08:00,
2013-09-18 16:13:00,62.9,61.2,29.79,South,169,2.0,7.0,94,0.00,,OVC,0.05,58.00,VWS V14.01,2013-09-18 21:13:00,
2013-09-18 16:18:00,63.0,61.2,29.79,South,188,3.0,8.0,94,0.00,,OVC,0.05,67.00,VWS V14.01,2013-09-18 21:18:00,
2013-09-18 16:24:00,63.0,61.2,29.79,SSE,160,4.0,6.0,94,0.00,,OVC,0.05,60.00,VWS V14.01,2013-09-18 21:24:00,
2013-09-18 16:29:00,63.1,61.3,29.79,SSW,194,3.0,5.0,94,0.00,,OVC,0.05,40.00,VWS V14.01,2013-09-18 21:29:00,
2013-09-18 16:34:00,63.1,61.3,29.78,SSE,160,3.0,5.0,94,0.00,,OVC,0.05,42.00,VWS V14.01,2013-09-18 21:34:00,
2013-09-18 16:39:00,63.2,61.5,29.78,WSW,243,5.0,6.0,94,0.00,,OVC,0.05,56.00,VWS V14.01,2013-09-18 21:39:00,
2013-09-18 16:44:00,63.2,61.5,29.78,SSW,204,5.0,6.0,94,0.00,,OVC,0.05,70.00,VWS V14.01,2013-09-18 21:44:00,
2013-09-18 16:50:00,63.3,61.5,29.79,South,178,0.0,4.0,94,0.00,,OVC,0.05,53.00,VWS V14.01,2013-09-18 21:50:00,
2013-09-18 16:55:00,63.4,61.7,29.79,WSW,250,5.0,6.0,94,0.00,,OVC,0.05,56.00,VWS V14.01,2013-09-18 21:55:00,
2013-09-18 17:00:00,63.5,61.8,29.79,SSW,200,1.0,5.0,94,0.00,,OVC,0.05,53.00,VWS V14.01,2013-09-18 22:00:00,
2013-09-18 17:05:00,63.6,61.8,29.79,NE,36,0.0,6.0,94,0.00,,OVC,0.05,47.00,VWS V14.01,2013-09-18 22:05:00,
2013-09-18 17:10:00,63.7,62.0,29.79,SSW,207,5.0,7.0,94,0.00,,OVC,0.05,46.00,VWS V14.01,2013-09-18 22:10:00,
2013-09-18 17:16:00,63.7,62.0,29.79,SSW,208,2.0,7.0,94,0.00,,OVC,0.05,46.00,VWS V14.01,2013-09-18 22:16:00,
2013-09-18 17:21:00,63.8,62.0,29.78,SW,222,1.0,7.0,94,0.00,,OVC,0.05,42.00,VWS V14.01,2013-09-18 22:21:00,
2013-09-18 17:26:00,63.9,62.1,29.78,SE,134,3.0,5.0,94,0.00,,OVC,0.05,49.00,VWS V14.01,2013-09-18 22:26:00,
2013-09-18 17:31:00,63.9,62.1,29.78,South,172,4.0,7.0,94,0.00,,OVC,0.05,47.00,VWS V14.01,2013-09-18 22:31:00,
2013-09-18 17:36:00,64.0,62.2,29.78,South,185,1.0,2.0,94,0.00,,OVC,0.05,37.00,VWS V14.01,2013-09-18 22:36:00,
2013-09-18 17:41:00,64.0,62.2,29.78,SW,236,2.0,2.0,94,0.00,,OVC,0.05,30.00,VWS V14.01,2013-09-18 22:41:00,
2013-09-18 17:47:00,64.1,62.3,29.78,South,169,1.0,3.0,94,0.00,,OVC,0.05,30.00,VWS V14.01,2013-09-18 22:47:00,
2013-09-18 17:52:00,64.1,62.3,29.78,SE,144,0.0,0.0,94,0.00,,OVC,0.05,30.00,VWS V14.01,2013-09-18 22:52:00,
2013-09-18 17:57:00,64.2,62.4,29.78,SSE,155,0.0,2.0,94,0.00,,OVC,0.05,23.00,VWS V14.01,2013-09-18 22:57:00,
2013-09-18 18:02:00,64.2,62.4,29.79,SSE,163,2.0,4.0,94,0.00,,OVC,0.05,18.00,VWS V14.01,2013-09-18 23:02:00,
2013-09-18 18:08:00,64.2,62.4,29.79,South,173,1.0,3.0,94,0.00,,OVC,0.05,16.00,VWS V14.01,2013-09-18 23:08:00,
2013-09-18 18:13:00,64.3,62.5,29.79,South,175,0.0,0.0,94,0.00,,OVC,0.05,18.00,VWS V14.01,2013-09-18 23:13:00,
2013-09-18 18:18:00,64.3,62.5,29.79,South,175,0.0,1.0,94,0.00,,OVC,0.05,11.00,VWS V14.01,2013-09-18 23:18:00,
2013-09-18 18:24:00,64.3,62.5,29.78,SSW,198,0.0,0.0,94,0.00,,OVC,0.05,12.00,VWS V14.01,2013-09-18 23:24:00,
2013-09-18 18:29:00,64.3,62.5,29.78,SSW,194,0.0,4.0,94,0.00,,OVC,0.05,12.00,VWS V14.01,2013-09-18 23:29:00,
2013-09-18 18:34:00,64.3,62.5,29.78,SSW,194,0.0,0.0,94,0.00,,OVC,0.05,7.00,VWS V14.01,2013-09-18 23:34:00,
2013-09-18 18:39:00,64.3,62.5,29.78,SSW,192,0.0,4.0,94,0.00,,OVC,0.05,9.00,VWS V14.01,2013-09-18 23:39:00,
2013-09-18 18:45:00,64.3,62.5,29.78,SSE,163,0.0,4.0,94,0.00,,OVC,0.05,7.00,VWS V14.01,2013-09-18 23:45:00,
2013-09-18 18:50:00,64.3,62.2,29.78,SSE,163,0.0,2.0,93,0.00,,OVC,0.05,0.00,VWS V14.01,2013-09-18 23:50:00,
2013-09-18 18:55:00,64.3,62.2,29.78,SSE,161,0.0,3.0,93,0.00,,OVC,0.05,0.00,VWS V14.01,2013-09-18 23:55:00,
2013-09-18 19:00:00,64.3,62.2,29.78,SSE,159,0.0,1.0,93,0.00,,OVC,0.05,0.00,VWS V14.01,2013-09-19 00:00:00,
2013-09-18 19:05:00,64.3,62.2,29.78,SSE,159,0.0,3.0,93,0.00,,OVC,0.05,0.00,VWS V14.01,2013-09-19 00:05:00,
2013-09-18 19:10:00,64.3,62.2,29.78,SSE,155,0.0,1.0,93,0.00,,OVC,0.05,0.00,VWS V14.01,2013-09-19 00:10:00,
2013-09-18 19:16:00,64.3,62.2,29.78,SSE,161,0.0,4.0,93,0.00,,OVC,0.05,0.00,VWS V14.01,2013-09-19 00:16:00,
2013-09-18 19:21:00,64.3,62.2,29.78,ESE,115,1.0,3.0,93,0.00,,OVC,0.05,0.00,VWS V14.01,2013-09-19 00:21:00,
2013-09-18 19:26:00,64.2,62.1,29.78,SSE,163,0.0,6.0,93,0.00,,OVC,0.05,0.00,VWS V14.01,2013-09-19 00:26:00,
2013-09-18 19:31:00,64.2,62.1,29.78,SSE,151,0.0,5.0,93,0.00,,OVC,0.05,0.00,VWS V14.01,2013-09-19 00:31:00,
2013-09-18 19:36:00,64.2,62.1,29.77,South,174,1.0,2.0,93,0.00,,OVC,0.05,0.00,VWS V14.01,2013-09-19 00:36:00,
2013-09-18 19:42:00,64.2,62.1,29.78,ESE,111,3.0,4.0,93,0.00,,OVC,0.05,0.00,VWS V14.01,2013-09-19 00:42:00,
2013-09-18 19:47:00,64.2,62.1,29.78,SE,146,0.0,1.0,93,0.00,,OVC,0.05,0.00,VWS V14.01,2013-09-19 00:47:00,
2013-09-18 19:52:00,64.2,62.1,29.78,SSE,162,4.0,4.0,93,0.00,,OVC,0.05,0.00,VWS V14.01,2013-09-19 00:52:00,
2013-09-18 19:57:00,64.2,62.1,29.78,SSE,147,2.0,4.0,93,0.00,,OVC,0.05,0.00,VWS V14.01,2013-09-19 00:57:00,
2013-09-18 20:02:00,64.3,62.2,29.78,South,169,3.0,7.0,93,0.00,,OVC,0.05,0.00,VWS V14.01,2013-09-19 01:02:00,
2013-09-18 20:08:00,64.3,62.2,29.78,SSE,152,0.0,4.0,93,0.00,,OVC,0.05,0.00,VWS V14.01,2013-09-19 01:08:00,
2013-09-18 20:13:00,64.3,62.5,29.78,SSE,151,1.0,5.0,94,0.00,,OVC,0.05,0.00,VWS V14.01,2013-09-19 01:13:00,
2013-09-18 20:18:00,64.4,62.6,29.78,South,175,0.0,1.0,94,0.00,,OVC,0.05,0.00,VWS V14.01,2013-09-19 01:18:00,
2013-09-18 20:23:00,64.5,62.7,29.78,SSW,193,3.0,6.0,94,0.00,,OVC,0.05,0.00,VWS V14.01,2013-09-19 01:23:00,
2013-09-18 20:29:00,64.5,62.7,29.78,SSE,160,0.0,5.0,94,0.00,,OVC,0.05,0.00,VWS V14.01,2013-09-19 01:29:00,
2013-09-18 20:34:00,64.6,62.8,29.78,SSE,157,3.0,5.0,94,0.00,,OVC,0.05,0.00,VWS V14.01,2013-09-19 01:34:00,
2013-09-18 20:39:00,64.7,62.9,29.78,SSE,158,2.0,4.0,94,0.00,,OVC,0.05,0.00,VWS V14.01,2013-09-19 01:39:00,
2013-09-18 20:44:00,64.7,62.9,29.78,SSE,160,2.0,2.0,94,0.00,,OVC,0.05,0.00,VWS V14.01,2013-09-19 01:44:00,
2013-09-18 20:49:00,64.7,62.9,29.78,South,189,2.0,3.0,94,0.00,,OVC,0.05,0.00,VWS V14.01,2013-09-19 01:49:00,
2013-09-18 20:55:00,64.8,63.0,29.78,SSE,162,0.0,6.0,94,0.00,,OVC,0.05,0.00,VWS V14.01,2013-09-19 01:55:00,
2013-09-18 21:00:00,64.8,63.0,29.78,SE,142,4.0,5.0,94,0.00,,OVC,0.05,0.00,VWS V14.01,2013-09-19 02:00:00,
2013-09-18 21:05:00,64.9,63.1,29.78,South,191,0.0,5.0,94,0.00,,OVC,0.05,0.00,VWS V14.01,2013-09-19 02:05:00,
2013-09-18 21:10:00,65.0,63.2,29.78,SSW,194,0.0,4.0,94,0.00,,OVC,0.05,0.00,VWS V14.01,2013-09-19 02:10:00,
2013-09-18 21:15:00,65.0,63.2,29.78,SE,145,3.0,4.0,94,0.00,,OVC,0.05,0.00,VWS V14.01,2013-09-19 02:15:00,
2013-09-18 21:21:00,65.1,63.3,29.78,SSW,193,1.0,3.0,94,0.00,,OVC,0.05,0.00,VWS V14.01,2013-09-19 02:21:00,
2013-09-18 21:26:00,65.1,63.3,29.78,South,173,0.0,4.0,94,0.00,,OVC,0.05,0.00,VWS V14.01,2013-09-19 02:26:00,
2013-09-18 21:32:00,65.2,63.4,29.78,SW,222,0.0,0.0,94,0.00,,OVC,0.05,0.00,VWS V14.01,2013-09-19 02:32:00,
2013-09-18 21:37:00,65.2,63.4,29.78,South,171,0.0,0.0,94,0.00,,OVC,0.05,0.00,VWS V14.01,2013-09-19 02:37:00,
2013-09-18 21:42:00,65.3,63.5,29.78,South,173,3.0,3.0,94,0.00,,OVC,0.05,0.00,VWS V14.01,2013-09-19 02:42:00,
2013-09-18 21:47:00,65.3,63.5,29.78,South,173,0.0,0.0,94,0.00,,OVC,0.05,0.00,VWS V14.01,2013-09-19 02:47:00,
2013-09-18 21:52:00,65.4,63.6,29.78,SE,134,0.0,4.0,94,0.00,,OVC,0.05,0.00,VWS V14.01,2013-09-19 02:52:00,
2013-09-18 21:59:00,65.4,63.6,29.78,SSE,162,0.0,2.0,94,0.00,,OVC,0.05,0.00,VWS V14.01,2013-09-19 02:59:00,
2013-09-18 22:04:00,65.4,63.6,29.78,SSW,198,0.0,6.0,94,0.00,,OVC,0.05,0.00,VWS V14.01,2013-09-19 03:04:00,
2013-09-18 22:09:00,65.5,63.7,29.78,South,173,0.0,3.0,94,0.00,,OVC,0.05,0.00,VWS V14.01,2013-09-19 03:09:00,
2013-09-18 22:14:00,65.5,63.7,29.78,SSE,158,3.0,6.0,94,0.00,,OVC,0.05,0.00,VWS V14.01,2013-09-19 03:14:00,
2013-09-18 22:19:00,65.5,63.7,29.79,SSE,167,7.0,7.0,94,0.00,,OVC,0.05,0.00,VWS V14.01,2013-09-19 03:19:00,
2013-09-18 22:25:00,65.5,63.7,29.78,South,175,3.0,5.0,94,0.00,,OVC,0.05,0.00,VWS V14.01,2013-09-19 03:25:00,
2013-09-18 22:30:00,65.4,63.6,29.78,South,182,0.0,4.0,94,0.00,,OVC,0.05,0.00,VWS V14.01,2013-09-19 03:30:00,
2013-09-18 22:35:00,65.4,63.3,29.78,SSE,150,2.0,6.0,93,0.00,,OVC,0.05,0.00,VWS V14.01,2013-09-19 03:35:00,
2013-09-18 22:40:00,65.4,63.3,29.78,South,178,3.0,6.0,93,0.00,,OVC,0.05,0.00,VWS V14.01,2013-09-19 03:40:00,
2013-09-18 22:45:00,65.3,63.2,29.78,East,87,5.0,6.0,93,0.00,,OVC,0.05,0.00,VWS V14.01,2013-09-19 03:45:00,
2013-09-18 22:50:00,65.3,63.2,29.78,SSW,197,0.0,9.0,93,0.00,,OVC,0.05,0.00,VWS V14.01,2013-09-19 03:50:00,
2013-09-18 22:56:00,65.3,63.2,29.78,South,179,4.0,6.0,93,0.00,,OVC,0.05,0.00,VWS V14.01,2013-09-19 03:56:00,
2013-09-18 23:01:00,65.3,63.5,29.77,South,171,3.0,6.0,94,0.00,,OVC,0.05,0.00,VWS V14.01,2013-09-19 04:01:00,
2013-09-18 23:02:00,65.3,63.5,29.77,South,171,1.0,2.0,94,0.00,,OVC,0.05,0.00,VWS V14.01,2013-09-19 04:02:00,
2013-09-18 23:07:00,65.3,63.5,29.77,SSE,167,6.0,6.0,94,0.00,,OVC,0.05,0.00,VWS V14.01,2013-09-19 04:07:00,
2013-09-18 23:10:00,65.3,63.5,29.77,SE,133,0.0,6.0,94,0.00,,OVC,0.05,0.00,VWS V14.01,2013-09-19 04:10:00,
2013-09-18 23:15:00,65.3,63.5,29.77,SSW,200,0.0,6.0,94,0.00,,OVC,0.05,0.00,VWS V14.01,2013-09-19 04:15:00,
2013-09-18 23:20:00,65.3,63.5,29.77,South,175,1.0,5.0,94,0.00,,OVC,0.05,0.00,VWS V14.01,2013-09-19 04:20:00,
2013-09-18 23:25:00,65.3,63.5,29.76,SSE,162,3.0,4.0,94,0.00,,OVC,0.05,0.00,VWS V14.01,2013-09-19 04:25:00,
2013-09-18 23:30:00,65.3,63.5,29.76,SSE,155,2.0,6.0,94,0.00,,OVC,0.05,0.00,VWS V14.01,2013-09-19 04:30:00,
2013-09-18 23:35:00,65.3,63.5,29.76,South,173,5.0,5.0,94,0.00,,OVC,0.05,0.00,VWS V14.01,2013-09-19 04:35:00,
2013-09-18 23:40:00,65.3,63.5,29.76,SSE,161,3.0,4.0,94,0.00,,OVC,0.05,0.00,VWS V14.01,2013-09-19 04:40:00,
2013-09-18 23:45:00,65.2,63.1,29.76,SSE,155,1.0,3.0,93,0.00,,OVC,0.05,0.00,VWS V14.01,2013-09-19 04:45:00,
2013-09-18 23:50:00,65.2,63.1,29.76,SSE,154,3.0,4.0,93,0.00,,OVC,0.05,0.00,VWS V14.01,2013-09-19 04:50:00,
2013-09-18 23:55:00,65.2,63.1,29.76,South,186,1.0,5.0,93,0.00,,OVC,0.05,0.00,VWS V14.01,2013-09-19 04:55:00,